Mountain Home, AR

5:18 AM CST on December 16, 2019 (GMT -0600)
Baxter County Regional

Weather History for KBPK - October, 2019

Change the Weather History Date:

Wednesday, October 30, 2019

  Actual Average (KFLP) Record (KFLP)
Temperature  
Mean Temperature 41 °F -  
Max Temperature 45 °F 65 °F 78 °F (1999)
Min Temperature 36 °F 46 °F 26 °F (2010)
Degree Days  
Heating Degree Days 24    
Moisture  
Dew Point 42 °F    
Average Humidity 99    
Maximum Humidity 100    
Minimum Humidity 93    
Precipitation  
Precipitation 0.30 in - - ()
Sea Level Pressure  
Sea Level Pressure 30.02 in    
Wind  
Wind Speed 4 mph (NE)    
Max Wind Speed 9 mph    
Max Gust Speed 17 mph    
Visibility 6 miles    
Events Rain    
Averages and records for this station are not official NWS values.
T = Trace of Precipitation, MM = Missing Value Source: NWS Daily Summary

Daily Weather History Graph

Daily Weather History Graph

Search for Another Location

Airport or City:

Astronomy

Oct. 30, 2019 Rise Set
Actual Time 7:30 AM CDT 6:15 PM CDT
Civil Twilight 7:04 AM CDT 6:42 PM CDT
Nautical Twilight 6:33 AM CDT 7:12 PM CDT
Astronomical Twilight 6:03 AM CDT 7:42 PM CDT
Moon 10:11 AM CDT (10/30) 8:27 PM CDT (10/30)
Length of Visible Light 11h 38m
Length of Day
10h 44m
Waxing Crescent, 9% of the Moon is Illuminated
Oct 30
Waxing Crescent
Nov 4
First Quarter
Nov 12
Full
Nov 19
Last Quarter
Nov 26
New

Hourly Weather History & Observations

Time (CDT) Temp. Windchill Dew Point Humidity Pressure Visibility Wind Dir Wind Speed Gust Speed Precip Events Conditions
12:53 AM 45.0 °F 43.5 °F 45.0 °F 100% 30.07 in 10.0 mi East 3.5 mph - 0.01 in Rain Light Rain
1:04 AM 45.0 °F - 45.0 °F 100% 30.07 in 9.0 mi Calm Calm - 0.00 in Rain Light Rain
1:53 AM 45.0 °F 42.6 °F 45.0 °F 100% 30.06 in 10.0 mi East 4.6 mph - 0.03 in   Overcast
2:05 AM 45.0 °F 41.8 °F 45.0 °F 100% 30.05 in 10.0 mi East 5.8 mph - N/A   Overcast
2:53 AM 45.0 °F 42.6 °F 45.0 °F 100% 30.06 in 8.0 mi Variable 4.6 mph - N/A   Overcast
3:53 AM 44.1 °F 41.5 °F 44.1 °F 100% 30.04 in 4.0 mi Variable 4.6 mph - N/A   Overcast
4:03 AM 44.1 °F 41.5 °F 44.1 °F 100% 30.04 in 3.0 mi Variable 4.6 mph - N/A   Overcast
4:18 AM 43.0 °F 41.3 °F 43.0 °F 100% 30.04 in 2.5 mi Variable 3.5 mph - N/A   Overcast
4:39 AM 43.0 °F 38.8 °F 43.0 °F 100% 30.03 in 3.0 mi ENE 6.9 mph - 0.00 in Rain Light Rain
4:53 AM 43.0 °F - 43.0 °F 100% 30.04 in 3.0 mi North - - 0.00 in   Overcast
5:06 AM 42.1 °F 40.2 °F 42.1 °F 100% 30.03 in 3.0 mi NE 3.5 mph - N/A   Overcast
6:22 AM 39.9 °F 36.7 °F 39.9 °F 100% 30.00 in 3.0 mi Variable 4.6 mph - 0.00 in Rain Light Rain
6:53 AM 41.0 °F 39.0 °F 41.0 °F 100% 30.03 in 3.0 mi Variable 3.5 mph - 0.00 in   Overcast
7:53 AM 39.9 °F 35.8 °F 39.9 °F 100% 30.04 in 3.0 mi North 5.8 mph - 0.01 in   Overcast
8:26 AM 39.9 °F 37.8 °F 39.9 °F 100% 30.05 in 2.5 mi Variable 3.5 mph - 0.00 in Rain Light Rain
8:53 AM 39.9 °F 35.8 °F 39.9 °F 100% 30.05 in 2.5 mi Variable 5.8 mph - 0.02 in Rain Light Rain
9:00 AM 39.9 °F - 39.9 °F 100% 30.05 in 3.0 mi Calm Calm - 0.01 in Rain Rain
9:05 AM 39.9 °F 36.7 °F 39.9 °F 100% 30.05 in 2.5 mi Variable 4.6 mph - 0.02 in Rain Light Rain
9:17 AM 39.9 °F 35.8 °F 39.9 °F 100% 30.07 in 6.0 mi North 5.8 mph - 0.03 in Rain Light Rain
9:53 AM 39.9 °F - 39.9 °F 100% 30.07 in 10.0 mi Calm Calm - 0.06 in   Overcast
10:49 AM 41.0 °F 38.0 °F 39.2 °F 93% 30.05 in 10.0 mi Variable 4.6 mph - N/A   Overcast
11:13 AM 41.0 °F 35.8 °F 39.9 °F 96% 30.04 in 10.0 mi ENE 8.1 mph - N/A   Overcast
11:45 AM 41.0 °F 38.0 °F 39.9 °F 96% 30.04 in 9.0 mi ENE 4.6 mph - 0.01 in   Overcast
11:53 AM 41.0 °F 37.1 °F 39.9 °F 96% 30.04 in 10.0 mi East 5.8 mph - 0.01 in   Overcast
12:39 PM 42.1 °F 37.7 °F 41.0 °F 96% 29.99 in 9.0 mi East 6.9 mph - N/A   Overcast
12:53 PM 43.0 °F 40.3 °F 42.1 °F 97% 30.00 in 10.0 mi East 4.6 mph - N/A   Overcast
1:53 PM 43.0 °F - 42.1 °F 97% 30.00 in 1.8 mi Calm Calm - 0.03 in Rain Heavy Rain
2:01 PM 42.1 °F - 42.1 °F 100% 30.00 in 2.5 mi Calm Calm - 0.02 in Rain Rain
2:42 PM 43.0 °F 40.3 °F 43.0 °F 100% 29.93 in 8.0 mi Variable 4.6 mph - 0.10 in Rain Light Rain
2:53 PM 43.0 °F 41.3 °F 43.0 °F 100% 29.94 in 7.0 mi Variable 3.5 mph - 0.11 in Rain Rain
3:19 PM 45.0 °F - 44.1 °F 97% 29.96 in 10.0 mi Calm Calm - 0.01 in   Overcast
3:53 PM 45.0 °F - 44.1 °F 97% 29.97 in 10.0 mi Calm Calm - 0.01 in   Overcast
4:45 PM 44.1 °F 41.5 °F 44.1 °F 100% 29.99 in 1.8 mi Variable 4.6 mph - 0.00 in Rain Light Rain
4:53 PM 44.1 °F 40.1 °F 44.1 °F 100% 29.99 in 2.0 mi Variable 6.9 mph - 0.01 in Rain Light Rain
5:00 PM 44.1 °F 40.8 °F 43.0 °F 96% 29.98 in 3.0 mi North 5.8 mph - 0.00 in Rain Light Rain
5:08 PM 43.0 °F - 43.0 °F 100% 29.97 in 2.5 mi Calm Calm - 0.00 in Rain Light Rain
5:22 PM 43.0 °F 40.3 °F 43.0 °F 100% 29.96 in 4.0 mi North 4.6 mph - 0.00 in   Overcast
5:46 PM 43.0 °F 40.3 °F 43.0 °F 100% 29.97 in 9.0 mi Variable 4.6 mph - 0.00 in   Overcast
5:53 PM 42.1 °F 39.2 °F 42.1 °F 100% 29.98 in 9.0 mi Variable 4.6 mph - 0.00 in   Overcast
6:53 PM 39.9 °F 33.9 °F 39.0 °F 97% 30.01 in 7.0 mi North 9.2 mph 17.3 mph N/A   Overcast
7:28 PM 39.0 °F 34.0 °F 37.9 °F 96% 30.01 in 10.0 mi Variable 6.9 mph - N/A   Overcast
7:53 PM 37.9 °F 34.4 °F 37.9 °F 100% 30.02 in 8.0 mi Variable 4.6 mph - N/A   Overcast
8:20 PM 37.9 °F 34.4 °F 37.9 °F 100% 30.02 in 10.0 mi Variable 4.6 mph - N/A   Overcast
8:53 PM 37.9 °F - 37.9 °F 100% 30.04 in 9.0 mi Calm Calm - N/A   Overcast
9:02 PM 37.9 °F 35.5 °F 37.9 °F 100% 30.02 in 10.0 mi Variable 3.5 mph - N/A   Overcast
11:53 PM 36.0 °F 31.1 °F 35.1 °F 97% 30.08 in 10.0 mi Variable 5.8 mph - 0.00 in   Overcast